Barking Sands, HI

8:17 AM HST on October 20, 2017 (GMT -1000)
Barking Sands PMRF

Weather History for PHBK - September, 2014

Change the Weather History Date:

Sunday, September 21, 2014

  Actual Average Record
Temperature  
Mean Temperature 81 °F -  
Max Temperature 87 °F 88 °F 91 °F (1964)
Min Temperature 75 °F 67 °F 62 °F (1951)
Cooling Degree Days 16    
Growing Degree Days 31 (Base 50)    
Moisture  
Dew Point 71 °F    
Average Humidity 71    
Maximum Humidity 82    
Minimum Humidity 61    
Precipitation  
Precipitation 0.00 in - - ()
Sea Level Pressure  
Sea Level Pressure 29.97 in    
Wind  
Wind Speed 6 mph (South)    
Max Wind Speed 12 mph    
Max Gust Speed -    
Visibility 10 miles    
Events      
Averages and records for this station are not official NWS values.
T = Trace of Precipitation, MM = Missing Value Source: NWS Daily Summary

Daily Weather History Graph

Daily Weather History Graph

Search for Another Location

Airport or City:

Trip Planner

Search our weather history database for the weather conditions in past years. The results will help you decide how hot, cold, wet, or windy it might be!

Date:

Astronomy

Sep. 21, 2014 Rise Set
Actual Time 6:27 AM HST 6:36 PM HST
Civil Twilight 6:05 AM HST 6:58 PM HST
Nautical Twilight 5:39 AM HST 7:24 PM HST
Astronomical Twilight 5:13 AM HST 7:50 PM HST
Moon 4:24 AM HST (9/21) 5:09 PM HST (9/21)
Length of Visible Light 12h 53m
Length of Day
12h 08m
Waning Crescent, 5% of the Moon is Illuminated
Sep 21
Waning Crescent
Sep 23
New
Oct 1
First Quarter
Oct 8
Full
Oct 15
Last Quarter

Hourly Weather History & Observations

Time (HST) Temp. Heat Index Dew Point Humidity Pressure Visibility Wind Dir Wind Speed Gust Speed Precip Events Conditions
12:56 AM 77.0 °F - 70.0 °F 79% 29.95 in 10.0 mi ENE 5.8 mph - N/A   Clear
1:56 AM 77.0 °F - 70.0 °F 79% 29.94 in 10.0 mi ENE 4.6 mph - N/A   Clear
2:56 AM 75.9 °F - 70.0 °F 82% 29.93 in 10.0 mi ENE 4.6 mph - N/A   Clear
3:56 AM 75.9 °F - 69.1 °F 79% 29.93 in 10.0 mi ENE 5.8 mph - N/A   Clear
4:56 AM 75.0 °F - 66.9 °F 76% 29.94 in 10.0 mi East 4.6 mph - N/A   Clear
5:56 AM 75.0 °F - 66.9 °F 76% 29.95 in 10.0 mi ENE 5.8 mph - N/A   Clear
6:56 AM 75.0 °F - 66.9 °F 76% 29.96 in 10.0 mi ENE 4.6 mph - N/A   Clear
7:56 AM 82.0 °F 84.9 °F 68.0 °F 62% 29.98 in 10.0 mi East 3.5 mph - N/A   Clear
8:56 AM 82.9 °F 88.0 °F 72.0 °F 69% 29.99 in 10.0 mi SW 6.9 mph - N/A   Clear
9:56 AM 84.0 °F 90.2 °F 73.0 °F 69% 30.00 in 10.0 mi SW 8.1 mph - N/A   Clear
10:56 AM 84.9 °F 91.4 °F 73.0 °F 67% 29.99 in 10.0 mi SW 8.1 mph - N/A   Clear
11:56 AM 86.0 °F 91.5 °F 71.1 °F 61% 29.98 in 10.0 mi WSW 8.1 mph - N/A   Clear
12:56 PM 87.1 °F 94.5 °F 73.0 °F 63% 29.96 in 10.0 mi WSW 6.9 mph - N/A   Clear
1:56 PM 87.1 °F 95.4 °F 73.9 °F 65% 29.94 in 10.0 mi SSW 11.5 mph - N/A   Clear
2:56 PM 86.0 °F 93.0 °F 73.0 °F 65% 29.93 in 10.0 mi South 9.2 mph - N/A   Scattered Clouds
3:56 PM 84.9 °F 91.4 °F 73.0 °F 67% 29.94 in 10.0 mi South 8.1 mph - N/A   Overcast
4:56 PM 84.9 °F 91.4 °F 73.0 °F 67% 29.94 in 10.0 mi South 5.8 mph - N/A   Overcast
5:56 PM 84.0 °F 91.2 °F 73.9 °F 72% 29.96 in 10.0 mi SSW 5.8 mph - N/A   Scattered Clouds
6:49 PM 82.9 °F 88.8 °F 73.0 °F 72% 29.96 in 10.0 mi SSW 5.8 mph - N/A   Mostly Cloudy
6:56 PM 82.9 °F 88.8 °F 73.0 °F 72% 29.97 in 10.0 mi SW 5.8 mph - N/A   Mostly Cloudy
7:12 PM 82.9 °F 88.0 °F 72.0 °F 69% 29.97 in 10.0 mi WSW 4.6 mph - N/A   Scattered Clouds
7:22 PM 82.9 °F 87.5 °F 71.1 °F 67% 29.97 in 10.0 mi SSW 5.8 mph - N/A   Mostly Cloudy
7:41 PM 82.9 °F 88.0 °F 72.0 °F 69% 29.98 in 10.0 mi WSW 4.6 mph - N/A   Scattered Clouds
7:56 PM 82.9 °F 88.0 °F 72.0 °F 69% 30.00 in 10.0 mi West 4.6 mph - N/A   Clear
8:56 PM 82.9 °F 88.8 °F 73.0 °F 72% 30.02 in 10.0 mi WNW 4.6 mph - N/A   Partly Cloudy
9:56 PM 80.1 °F 84.2 °F 73.0 °F 79% 30.03 in 10.0 mi East 3.5 mph - N/A   Partly Cloudy
10:56 PM 79.0 °F - 72.0 °F 79% 30.02 in 10.0 mi East 3.5 mph - N/A   Clear
11:56 PM 79.0 °F - 72.0 °F 79% 30.02 in 10.0 mi ESE 3.5 mph - N/A   Clear